Location: Unspecified
(41.2590°N, 0.0000°E)
Time: 04:17:52
(UTC+00:00)

AO-27 - Visible Passes

Search period start: 04 April 2026 00:00
Search period end: 14 April 2026 00:00
Orbit: 783 x 794 km, 98.7° (Epoch: 29 March)

Date Brightness Start Highest point End Pass type
(mag) Time Alt. Az. Time Alt. Az. Time Alt. Az.
4 Apr 8.3 20:49:50 40° NE 20:49:50 40° NE 20:54:01 10° N visible
4 Apr 9.9 22:30:31 20° WNW 22:30:31 20° WNW 22:32:52 10° NW visible
5 Apr 8.9 20:19:25 23° ENE 20:19:27 23° ENE 20:23:30 10° NNE visible
5 Apr 9.0 22:00:06 35° WNW 22:00:06 35° WNW 22:03:34 10° NNW visible
6 Apr 9.5 19:49:00 13° ENE 19:49:54 13° ENE 19:52:12 10° NNE visible
6 Apr 8.1 21:29:42 57° NNW 21:29:42 57° NNW 21:33:49 10° NNW visible
7 Apr 8.1 20:59:17 49° NE 20:59:17 49° NE 21:03:45 10° N visible
7 Apr 10.0 22:39:58 17° WNW 22:39:58 17° WNW 22:42:08 10° NW visible
8 Apr 8.7 20:28:53 28° ENE 20:28:59 28° ENE 20:33:21 10° N visible
8 Apr 9.2 22:09:34 32° WNW 22:09:34 32° WNW 22:13:04 10° NNW visible
9 Apr 9.4 19:58:28 15° ENE 19:59:23 16° ENE 20:02:25 10° NNE visible
9 Apr 8.2 21:39:09 57° NW 21:39:09 57° NW 21:43:26 10° NNW visible
10 Apr 7.8 21:08:45 60° NE 21:08:45 60° NE 21:13:28 10° N visible
10 Apr 10.1 22:49:26 15° WNW 22:49:26 15° WNW 22:51:16 10° NW visible
11 Apr 8.4 20:38:20 33° ENE 20:38:31 34° ENE 20:43:10 10° N visible
11 Apr 9.3 22:19:01 28° WNW 22:19:01 28° WNW 22:22:30 10° NW visible
12 Apr 9.2 20:07:56 18° ENE 20:08:53 19° ENE 20:12:27 10° NNE visible
12 Apr 8.3 21:48:37 52° WNW 21:48:37 52° WNW 21:53:00 10° NNW visible
13 Apr 9.8 19:38:39 10° ENE 19:39:23 10° ENE 19:40:08 10° NE visible
13 Apr 7.6 21:18:13 73° NE 21:18:13 73° NE 21:23:07 10° N visible
13 Apr 10.2 22:58:53 12° WNW 22:58:53 12° WNW 23:00:08 10° WNW visible
